Regional Weather Roundup
Issued by NWS

Home | Current Version | Previous Version | Graphics & Text | Print | Product List | Glossary Off
Versions: 1 2 3 4 5 6 7 8 9 10 11 12 13 14 15 16 17 18 19 20 21 22 23 24 25 26 27 28 29 30 31 32 33 34 35 36 37 38 39 40 41 42 43 44 45 46 47 48 49 50

000
ASUS43 KBIS 180010
RWRND

NORTH DAKOTA REGIONAL WEATHER ROUNDUP
NATIONAL WEATHER SERVICE BISMARCK ND
600 PM CST TUE JAN 17 2017

NOTE: "FAIR" INDICATES FEW OR NO CLOUDS BELOW 12,000 FEET WITH NO
SIGNIFICANT WEATHER AND/OR OBSTRUCTIONS TO VISIBILITY.


NDZ001>003-009>011-017-180100-
NORTHWEST NORTH DAKOTA

CITY           SKY/WX    TMP DP  RH WIND       PRES   REMARKS
WILLISTON      FAIR      30  20  66 SW10      29.72R
6HR MIN TEMP:  21; 6HR MAX TEMP:  30;

MINOT          FAIR      34  22  61 SW20G28   29.65S
$$

NDZ018>021-031>035-040>046-180100-
SOUTHWEST NORTH DAKOTA

CITY           SKY/WX    TMP DP  RH WIND       PRES   REMARKS
BISMARCK       FAIR      28  17  63 SW6       29.79S
6HR MIN TEMP:  13; 6HR MAX TEMP:  34;

DICKINSON      FAIR      30  20  66 W15       29.75S WCI  19
GARRISON         N/A     27  20  75 SW7       29.71S WCI  19
6HR MIN TEMP:  20; 6HR MAX TEMP:  30;

HETTINGER ARPT CLOUDY    28  18  66 CALM      29.83R
$$

NDZ004>008-012>016-024-026-027-054-180100-
NORTHEAST NORTH DAKOTA

CITY           SKY/WX    TMP DP  RH WIND       PRES   REMARKS
GRAND FORKS    CLOUDY    21  16  81 S17       29.76F WCI   7
GRND FRKS AFB  CLEAR     25  19  77 S18       29.73F WCI  12
DEVILS LAKE    FAIR      25  18  74 SW17      29.66F WCI  12
$$

NDZ022-023-025-028>030-036>039-047>053-180100-
SOUTHEAST NORTH DAKOTA

CITY           SKY/WX    TMP DP  RH WIND       PRES   REMARKS
FARGO          CLOUDY    21  17  84 S14       29.86F WCI   8
6HR MIN TEMP:  17; 6HR MAX TEMP:  26;

JAMESTOWN      FAIR      26  17  68 S14       29.77F WCI  14
$$





USA.gov is the U.S. government's official web portal to all federal, state and local government web resources and services.